TimeCDT,TemperatureF,Dew PointF,Humidity,Sea Level PressureIn,VisibilityMPH,Wind Direction,Wind SpeedMPH,Gust SpeedMPH,PrecipitationIn,Events,Conditions,WindDirDegrees,DateUTC
12:15 AM,55.8,37.2,50,30.02,10.0,Calm,Calm,-,N/A,,Clear,0,2012-09-20 05:15:00
12:35 AM,54.9,37.6,52,30.02,10.0,WNW,3.5,-,N/A,,Clear,290,2012-09-20 05:35:00
12:55 AM,53.2,38.3,57,30.01,10.0,NW,3.5,-,N/A,,Clear,310,2012-09-20 05:55:00
1:15 AM,52.0,38.7,60,30.02,10.0,West,4.6,-,N/A,,Clear,280,2012-09-20 06:15:00
1:35 AM,50.2,39.2,66,30.01,10.0,West,3.5,-,N/A,,Clear,280,2012-09-20 06:35:00
1:55 AM,50.9,39.0,64,30.02,10.0,West,3.5,-,N/A,,Clear,280,2012-09-20 06:55:00
2:15 AM,51.1,38.7,63,30.03,10.0,WNW,4.6,-,N/A,,Clear,290,2012-09-20 07:15:00
2:35 AM,51.4,38.1,60,30.03,10.0,West,3.5,-,N/A,,Clear,280,2012-09-20 07:35:00
2:55 AM,49.1,39.0,68,30.03,10.0,West,4.6,-,N/A,,Clear,280,2012-09-20 07:55:00
3:15 AM,48.7,38.7,68,30.03,10.0,West,3.5,-,N/A,,Clear,280,2012-09-20 08:15:00
3:35 AM,48.4,38.1,68,30.03,10.0,WNW,4.6,-,N/A,,Clear,290,2012-09-20 08:35:00
3:55 AM,46.4,38.1,73,30.02,10.0,West,4.6,-,N/A,,Clear,280,2012-09-20 08:55:00
4:15 AM,46.0,38.1,74,30.03,10.0,West,4.6,-,N/A,,Clear,280,2012-09-20 09:15:00
4:35 AM,46.0,38.3,74,30.03,10.0,West,4.6,-,N/A,,Clear,280,2012-09-20 09:35:00
4:55 AM,45.7,38.7,76,30.03,10.0,WNW,4.6,-,N/A,,Clear,290,2012-09-20 09:55:00
5:15 AM,45.1,39.0,79,30.03,10.0,WNW,3.5,-,N/A,,Clear,290,2012-09-20 10:15:00
5:35 AM,45.5,39.4,79,30.04,10.0,WNW,4.6,-,N/A,,Clear,290,2012-09-20 10:35:00
5:55 AM,45.1,39.6,81,30.04,10.0,West,4.6,-,N/A,,Clear,280,2012-09-20 10:55:00
6:15 AM,45.5,39.2,79,30.04,10.0,WNW,4.6,-,N/A,,Clear,300,2012-09-20 11:15:00
6:35 AM,44.2,39.2,82,30.05,10.0,West,4.6,-,N/A,,Clear,280,2012-09-20 11:35:00
6:55 AM,44.2,39.2,82,30.05,10.0,West,4.6,-,N/A,,Clear,280,2012-09-20 11:55:00
7:15 AM,44.4,39.4,82,30.05,10.0,WNW,4.6,-,N/A,,Clear,290,2012-09-20 12:15:00
7:35 AM,44.1,39.6,84,30.06,10.0,WNW,4.6,-,N/A,,Clear,290,2012-09-20 12:35:00
7:55 AM,44.6,40.1,84,30.06,10.0,WNW,3.5,-,N/A,,Clear,290,2012-09-20 12:55:00
8:15 AM,45.9,41.0,83,30.06,10.0,WNW,3.5,-,N/A,,Clear,290,2012-09-20 13:15:00
8:35 AM,48.6,41.4,76,30.06,10.0,WNW,4.6,-,N/A,,Clear,290,2012-09-20 13:35:00
8:55 AM,50.5,41.2,70,30.06,10.0,West,3.5,-,N/A,,Clear,280,2012-09-20 13:55:00
9:15 AM,53.2,40.6,62,30.06,10.0,WNW,3.5,-,N/A,,Clear,290,2012-09-20 14:15:00
9:35 AM,55.8,40.1,56,30.06,10.0,West,3.5,-,N/A,,Clear,270,2012-09-20 14:35:00
9:55 AM,57.7,39.6,51,30.06,10.0,West,4.6,-,N/A,,Clear,270,2012-09-20 14:55:00
10:15 AM,60.1,38.3,44,30.06,10.0,WSW,3.5,-,N/A,,Clear,250,2012-09-20 15:15:00
10:35 AM,63.1,37.0,38,30.07,10.0,WSW,6.9,-,N/A,,Clear,250,2012-09-20 15:35:00
10:55 AM,65.8,35.4,32,30.07,10.0,West,8.1,-,N/A,,Clear,260,2012-09-20 15:55:00
11:15 AM,68.5,33.1,27,30.08,10.0,West,10.4,-,N/A,,Scattered Clouds,280,2012-09-20 16:15:00
11:35 AM,71.8,33.8,25,30.07,10.0,WNW,15.0,-,N/A,,Scattered Clouds,290,2012-09-20 16:35:00
11:55 AM,72.0,34.0,25,30.07,10.0,NW,18.4,24.2,N/A,,Mostly Cloudy,310,2012-09-20 16:55:00
12:15 PM,70.3,35.2,28,30.07,10.0,WNW,17.3,-,N/A,,Scattered Clouds,300,2012-09-20 17:15:00
12:35 PM,68.9,38.7,33,30.06,10.0,WNW,11.5,-,N/A,Rain,Light Rain,300,2012-09-20 17:35:00
12:55 PM,68.4,39.2,34,30.05,10.0,WNW,9.2,-,N/A,,Scattered Clouds,300,2012-09-20 17:55:00
1:15 PM,68.2,40.3,36,30.04,10.0,NNW,5.8,-,N/A,,Scattered Clouds,330,2012-09-20 18:15:00
1:35 PM,70.0,40.3,34,30.03,10.0,WNW,10.4,-,N/A,,Mostly Cloudy,300,2012-09-20 18:35:00
1:55 PM,71.2,38.5,30,30.02,10.0,West,10.4,-,N/A,,Mostly Cloudy,280,2012-09-20 18:55:00
2:15 PM,71.4,38.8,31,30.02,10.0,West,10.4,-,N/A,,Scattered Clouds,270,2012-09-20 19:15:00
2:35 PM,71.8,39.2,31,30.01,10.0,WNW,9.2,-,N/A,,Scattered Clouds,300,2012-09-20 19:35:00
2:55 PM,72.1,38.5,29,30.01,10.0,West,6.9,-,N/A,,Clear,280,2012-09-20 19:55:00
3:15 PM,72.3,37.6,28,30.00,10.0,West,8.1,-,N/A,,Clear,270,2012-09-20 20:15:00
3:35 PM,73.4,37.8,27,30.00,10.0,WNW,5.8,-,N/A,,Clear,300,2012-09-20 20:35:00
3:55 PM,73.0,38.3,28,29.99,10.0,WSW,8.1,16.1,N/A,,Clear,240,2012-09-20 20:55:00
4:15 PM,73.4,37.9,28,29.98,10.0,SSW,3.5,-,N/A,,Clear,210,2012-09-20 21:15:00
4:35 PM,73.4,36.7,26,29.98,10.0,SW,4.6,-,N/A,,Clear,230,2012-09-20 21:35:00
4:55 PM,72.5,35.6,26,29.98,10.0,West,3.5,-,N/A,,Clear,280,2012-09-20 21:55:00
5:15 PM,71.2,40.1,32,29.97,10.0,Calm,Calm,-,N/A,,Clear,0,2012-09-20 22:15:00
5:35 PM,70.2,41.2,35,29.97,10.0,NNE,4.6,-,N/A,,Clear,20,2012-09-20 22:35:00
5:55 PM,69.8,41.4,36,29.97,10.0,North,5.8,-,N/A,,Clear,10,2012-09-20 22:55:00
6:15 PM,69.1,41.2,36,29.97,10.0,Calm,Calm,-,N/A,,Clear,0,2012-09-20 23:15:00
6:35 PM,68.9,41.7,37,29.97,10.0,Calm,Calm,-,N/A,,Clear,0,2012-09-20 23:35:00
6:55 PM,68.0,42.1,39,29.97,10.0,Calm,Calm,-,N/A,,Clear,0,2012-09-20 23:55:00
7:15 PM,66.0,44.2,45,29.97,10.0,Calm,Calm,-,N/A,,Clear,0,2012-09-21 00:15:00
7:35 PM,66.6,43.9,44,29.96,10.0,Calm,Calm,-,N/A,,Clear,0,2012-09-21 00:35:00
7:55 PM,64.2,44.8,49,29.96,10.0,ESE,3.5,-,N/A,,Clear,110,2012-09-21 00:55:00
8:15 PM,63.1,44.6,51,29.96,10.0,SE,4.6,-,N/A,,Clear,130,2012-09-21 01:15:00
8:35 PM,63.5,44.2,49,29.96,10.0,East,3.5,-,N/A,,Clear,100,2012-09-21 01:35:00
8:55 PM,63.5,43.9,49,29.96,10.0,ESE,3.5,-,N/A,,Clear,120,2012-09-21 01:55:00
9:15 PM,62.4,44.1,51,29.96,10.0,SE,5.8,-,N/A,,Clear,130,2012-09-21 02:15:00
9:35 PM,61.5,43.9,52,29.97,10.0,Calm,Calm,-,N/A,,Clear,0,2012-09-21 02:35:00
9:55 PM,61.2,44.6,54,29.97,10.0,SSE,3.5,-,N/A,,Clear,150,2012-09-21 02:55:00
10:15 PM,61.0,45.0,56,29.97,10.0,Calm,Calm,-,N/A,,Clear,0,2012-09-21 03:15:00
10:35 PM,59.7,45.7,60,29.97,10.0,Calm,Calm,-,N/A,,Clear,0,2012-09-21 03:35:00
10:55 PM,58.6,46.8,65,29.97,10.0,Calm,Calm,-,N/A,,Clear,0,2012-09-21 03:55:00
11:15 PM,59.4,46.6,63,29.96,10.0,SE,3.5,-,N/A,,Clear,140,2012-09-21 04:15:00
11:35 PM,58.1,47.7,68,29.96,10.0,Calm,Calm,-,N/A,,Clear,0,2012-09-21 04:35:00
11:55 PM,57.7,48.2,70,29.95,10.0,Calm,Calm,-,N/A,,Clear,0,2012-09-21 04:55:00